Regional Weather Roundup
Issued by NWS

Home | Current Version | Previous Version | Text Only | Print | Product List | Glossary On
Versions: 1 2 3 4 5 6 7 8 9 10 11 12 13 14 15 16 17 18 19 20 21 22 23 24 25 26 27 28 29 30 31 32 33 34 35 36 37 38 39 40 41 42 43 44 45 46 47 48 49 50
000
ASCA44 KEWX 282020
RWRMX

LATIN AMERICA AND CARIBBEAN REGIONAL WEATHER ROUNDUP
NATIONAL WEATHER SERVICE AUSTIN/SAN ANTONIO TX
300 PM CDT TUE MAR 28 2017

NOTE: "FAIR" INDICATED FEW OR NO CLOUDS BELOW 12,000 FEET WITH NO
SIGNIFICANT WEATHER AND/OR OBSTRUCTIONS TO VISIBILITY.

BAJA CALIFORNIA

CITY           SKY/WX    TMP DP  RH WIND       PRES   REMARKS
LORETO           N/A    N/A N/A N/A MISG        N/A
LA PAZ         SUNNY     84  39  20 N14       29.89F
MEXICALI       SUNNY     77  21  12 NW18      29.97F
S.J. DEL CABO  SUNNY     82  50  32 SE14      29.86F
TIJUANA        SUNNY     68  46  45 SW9       30.03F

NORTHWESTERN MEXICO

CITY           SKY/WX    TMP DP  RH WIND       PRES   REMARKS
CULIACAN       SUNNY     86  52  30 SW6       29.86F
DURANGO        MOSUNNY   82  -2   4 W17       30.01F
GUAYMAS        SUNNY     75  57  53 SW12      29.84F
HERMOSILLO     MOSUNNY   81  45  28 W14       29.90F
CD. JUAREZ     PTSUNNY   59  50  72 SW29G40   29.78S
LOS MOCHIS     SUNNY     79  55  44 SW9       29.90F
OBREGON        SUNNY     79  45  29 W8        29.85F

NORTHEASTERN MEXICO

CITY           SKY/WX    TMP DP  RH WIND       PRES   REMARKS
CHIHUAHUA      SUNNY     82  18   9 W31G43    29.73F
MATAMOROS      PTSUNNY   84  70  61 SE17      29.73F
MONCLOVA       MOSUNNY   95  54  24 CALM      29.60F HX  93
MONTERREY      PTSUNNY   86  63  45 SE7       29.66F
NUEVO LAREDO   MOSUNNY   88  68  51 SE17      29.63F HX  91
PIEDRAS NEGRAS CLOUDY    81  68  65 SE9       29.65
REYNOSA        PTSUNNY   86  57  37 E23G44    29.67F
SALTILLO       PTSUNNY   86  57  37 N7        29.92F
TORREON        MOSUNNY   93   1   3 S36       29.77F
CD. VICTORIA   SUNNY     91  63  38 S23       29.66F HX  92

WESTERN MEXICO

CITY           SKY/WX    TMP DP  RH WIND       PRES   REMARKS
AGUASCALIENTES SUNNY     84   5   5 W14       30.09F
COLIMA         SUNNY     84  57  39 W17       29.95F
DEL BAJIO      MOSUNNY   84  27  12 W14       30.16F
GUADALAJARA    SUNNY     86  10   6 SW12G25   30.05F
MANZANILLO     MOSUNNY   81  73  78 S9        29.86F
MAZATLAN       MOSUNNY   81  61  50 W8        29.92F
P. VALLARTA    SUNNY     79  66  65 SW18      29.86F
URUAPAN        SUNNY     79  48  34 S12       30.10F
ZACATECAS      SUNNY     81  21  11 SW17G35   30.11F

CENTRAL MEXICO

CITY           SKY/WX    TMP DP  RH WIND       PRES   REMARKS
CUERNAVACA     MOSUNNY   90  46  22 W8        29.99F
MEXICO CITY    MOSUNNY   79  36  21 S15       30.19F
MORELIA        MOSUNNY   84  45  24 S21       30.10F
POZA RICA      SUNNY     91  75  59 S6        29.75F HX 102
PUEBLA         MOSUNNY   73  37  27 S13       30.20F
QUERETARO      MOSUNNY   81  32  17 SW17G29   30.15F
S. LUIS POTOSI SUNNY     84 -11   2 W17       30.05F
TAMPICO        MOSUNNY   82  72  69 E18       29.72F
TOLUCA         PTSUNNY   70  36  28 SW9       30.29F

SOUTHERN MEXICO

CITY           SKY/WX    TMP DP  RH WIND       PRES   REMARKS
ACAPULCO       SUNNY     84  73  70 SW13      29.85F HX  91
B. DE HUATULCO   N/A    N/A N/A N/A MISG        N/A
OAXACA         PTSUNNY   88  32  13 S9        30.04F
P. ESCONDIDO   MOSUNNY   82  75  78 SW15      29.94F
VERACRUZ       SUNNY     90  75  62 E12       29.72F HX 100
ZIHUATANEJO    SUNNY     86  72  62 SW8       29.87F HX  92

YUCATAN PENINSULA

CITY           SKY/WX    TMP DP  RH WIND       PRES   REMARKS
CAMPECHE       SUNNY     95  59  30 E12       29.77  HX  94
CANCUN         PTSUNNY   82  66  57 SE13      29.95F
CHETUMAL       MOSUNNY   86  72  62 SE20      29.88F HX  92
CD. DEL CARMEN SUNNY     93  64  38 SE10      29.79F HX  95
COZUMEL        MOSUNNY   84  66  54 SE14      29.92F
MERIDA         MOSUNNY   97  55  24 E14       29.82F HX  95
MINATITLAN     SUNNY     93  72  49 S14       29.72F HX 100
TAPACHULA      PTSUNNY   88  72  58 SW12      29.84F HX  94
TUX. GUTIERREZ SUNNY     95  55  26 CALM      29.80F HX  93
VILLAHERMOSA   SUNNY     91  70  49 E5        29.79F HX  97

CENTRAL AMERICA

CITY           SKY/WX    TMP DP  RH WIND       PRES   REMARKS
BELIZE CITY    MOSUNNY   86  75  70 E8        29.86F HX  95
MANAGUA        PTCLDY    93  68  43 SE14      29.80F HX  97

CARIBBEAN

CITY           SKY/WX    TMP DP  RH WIND       PRES   REMARKS
ARUBA          MOSUNNY   88  75  66 E14       29.83S HX  97
KINGSTON       MOSUNNY   86  72  62 SE15      29.89S HX  92
NASSAU         MOSUNNY   81  54  39 NE3       30.02F
SAN JUAN       PTSUNNY   82  75  78 N6        29.89F
SANTO DOMINGO  MOSUNNY   84  72  65 S9        29.86F
ST. CROIX      MOSUNNY   84  73  70 SE7       29.91F HX  91
ST. KITTS      MOSUNNY   82  72  69 SW7       29.89S
ST. MAARTEN    MOSUNNY   82  75  78 SW3       29.89F
ST. THOMAS     MOSUNNY   81  75  83 SW7       29.89F

$$




USA.gov is the U.S. government's official web portal to all federal, state and local government web resources and services.